CZ-6A DEB, 61365

Orbit data source: Space-Track

CZ-6A DEB, 61365 is space debris in LEO originally from a launch on Tue, 06 Aug 2024 UTC launched from the Taiyaun Space Center, China (TSC). Debris objects in space refer to the collection of defunct objects orbiting the Earth. Examples of debris include non-operational satellites, rocket bodies, and fragments generated from explosions, collisions, or faulty payload assembly.

Loading next visibility...
Identifier
61365, 2024-140WE
Orbit
LEO
Country
Flag of CNCN / PRC
Related business
Manufacturer
SAST
Mission
Spacecraft
Bus & Motor
Unknown
Mass
Unknown
Launch date (UTC)
2024-08-06 (2 years ago)
Launch vehicle
Unknown
Launch site
Taiyaun Space Center, China (TSC)
Object type
Payload
Rocket body
Debris
Shape & HBR
Unknown shape, 0.1 m
Radar Cross Section
Small (<0.1 m²)

Expand to show TLE details & history
Last TLE update: 15 hours ago

TLE from 15 hours ago
0 CZ-6A DEB
1 61365U 24140WE  26171.33568932  .00001553  00000-0  20547-3 0  9993
2 61365  89.1230 278.4286 0170513 160.7461 200.0308 14.69656139 95990
Epoch: 2026-06-20T08:03Z
TLE epoch observation values (Epoch: 2026-06-20T08:03:23.557Z)
Latitude
-0.00007°
Longitude
-110.97134°
Altitude
778.337 km
Speed
7.405 km/s
True Right ascension
18h 33m 42s
True Declination
0° 00' 00"
Sunlit
Object was in full shadow at epoch
Visualization orbit readout
Latitude
Unknown
Longitude
Unknown
Altitude
Unknown
Speed
Unknown
Apparent Right ascension
Unknown
Apparent Declination
Unknown
Sunlit
N/A
Visualization observer readout
Local Sidereal Time
10:17:10
Azimuth
Unknown
Elevation
Unknown
Doppler factor
Unknown
Orbital elements
Apogee altitude
779.038 km
Perigee altitude
539.051 km
Semi-major axis
7,037.181 km
Eccentricity
0.01705
Inclination
89.123°
RAAN
278.4286°
Arg. of periapsis
160.7461°
True anomaly
199.37469°
Mean anomaly
200.0308°
Eccentric anomaly
199.70145°
Mean motion
3.67659 °/min
Orbital period
97.92 mins
BSTAR
0.00020547
Loading maneuver chart data...
Computing Atmospheric mass density...
Loading historical data...
Loading historical data...
Loading historical data...
Loading historical data...
Loading historical data...
Loading historical data...
Loading historical data...

Documentation

Showing up to 5 results
|